Regional Weather Roundup
Issued by NWS

Home | Current Version | Previous Version | Graphics & Text | Print | Product List | Glossary On
Versions: 1 2 3 4 5 6 7 8 9 10 11 12 13 14 15 16 17 18 19 20 21 22 23 24 25 26 27 28 29 30 31 32 33 34 35 36 37 38 39 40 41 42 43 44 45 46 47 48 49 50
000
ASUS43 KBIS 231102
RWRND

NORTH DAKOTA REGIONAL WEATHER ROUNDUP
NATIONAL WEATHER SERVICE BISMARCK ND
600 AM CDT TUE AUG 23 2016

NOTE: "FAIR" INDICATES FEW OR NO CLOUDS BELOW 12,000 FEET WITH NO
SIGNIFICANT WEATHER AND/OR OBSTRUCTIONS TO VISIBILITY.


NDZ001>003-009>011-017-231200-
NORTHWEST NORTH DAKOTA

CITY           SKY/WX    TMP DP  RH WIND       PRES   REMARKS
WILLISTON      CLOUDY    67  36  31 N17       29.68F
MINOT          FOG       66  66 100 W8        29.60R VSB 1/2
MINOT AFB      MOCLDY    64  64  99 NW14      29.59R
$$

NDZ018>021-031>035-040>046-231200-
SOUTHWEST NORTH DAKOTA

CITY           SKY/WX    TMP DP  RH WIND       PRES   REMARKS
BISMARCK       CLEAR     59  58  96 NW7       29.60R
DICKINSON      CLOUDY    58  39  49 NW12      29.67R
GARRISON         N/A     63  63 100 NW6       29.61R
HETTINGER ARPT CLEAR     55  44  66 NW10      29.67R
$$

NDZ004>008-012>016-024-026-027-054-231200-
NORTHEAST NORTH DAKOTA

CITY           SKY/WX    TMP DP  RH WIND       PRES   REMARKS
GRAND FORKS    CLOUDY    70  64  81 S21       29.61S
GRND FRKS AFB  PTCLDY    69  65  87 S15G23    29.61S
DEVILS LAKE    CLEAR     69  65  86 SE15      29.60S
$$

NDZ022-023-025-028>030-036>039-047>053-231200-
SOUTHEAST NORTH DAKOTA

CITY           SKY/WX    TMP DP  RH WIND       PRES   REMARKS
FARGO          CLOUDY    70  61  73 SE17G25   29.67S
JAMESTOWN      PTCLDY    67  63  87 S14       29.61R
$$





USA.gov is the U.S. government's official web portal to all federal, state and local government web resources and services.